Time,TemperatureF,DewpointF,PressureIn,WindDirection,WindDirectionDegrees,WindSpeedMPH,WindSpeedGustMPH,Humidity,HourlyPrecipIn,Conditions,Clouds,dailyrainin,SoftwareType,DateUTC
2013-05-17 00:02:00,44.0,23.0,28.77,NE,56,0.0,1.0,44,0.00,,,0.00,,2013-05-17 08:02:00,
2013-05-17 00:12:00,44.0,23.0,28.77,NE,56,0.0,1.0,44,0.00,,,0.00,,2013-05-17 08:12:00,
2013-05-17 00:22:00,44.0,24.0,28.77,NE,56,0.0,1.0,45,0.00,,,0.00,,2013-05-17 08:22:00,
2013-05-17 00:33:00,44.0,24.0,28.77,NE,56,0.0,0.0,45,0.00,,,0.00,,2013-05-17 08:33:00,
2013-05-17 00:42:00,44.0,24.0,28.77,NE,56,0.0,0.0,45,0.00,,,0.00,,2013-05-17 08:42:00,
2013-05-17 00:52:00,43.0,24.0,28.77,NE,56,0.0,0.0,46,0.00,,,0.00,,2013-05-17 08:52:00,
2013-05-17 01:02:00,43.0,24.0,28.77,NE,56,0.0,0.0,47,0.00,,,0.00,,2013-05-17 09:02:00,
2013-05-17 01:12:00,43.0,24.0,28.77,NE,56,0.0,0.0,47,0.00,,,0.00,,2013-05-17 09:12:00,
2013-05-17 01:22:00,42.0,24.0,28.77,NE,56,0.0,0.0,49,0.00,,,0.00,,2013-05-17 09:22:00,
2013-05-17 01:33:00,41.0,24.0,28.76,NE,56,0.0,0.0,50,0.00,,,0.00,,2013-05-17 09:33:00,
2013-05-17 01:42:00,41.0,24.0,28.76,NE,56,0.0,0.0,50,0.00,,,0.00,,2013-05-17 09:42:00,
2013-05-17 01:53:00,41.0,24.0,28.76,NE,56,0.0,0.0,50,0.00,,,0.00,,2013-05-17 09:53:00,
2013-05-17 02:02:00,41.0,24.0,28.76,NE,56,0.0,0.0,50,0.00,,,0.00,,2013-05-17 10:02:00,
2013-05-17 02:12:00,41.0,24.0,28.75,NE,56,0.0,0.0,50,0.00,,,0.00,,2013-05-17 10:12:00,
2013-05-17 02:23:00,41.0,24.0,28.75,NE,56,0.0,0.0,50,0.00,,,0.00,,2013-05-17 10:23:00,
2013-05-17 02:32:00,41.0,24.0,28.76,NE,56,0.0,0.0,50,0.00,,,0.00,,2013-05-17 10:32:00,
2013-05-17 02:42:00,41.0,24.0,28.76,NE,56,0.0,0.0,50,0.00,,,0.00,,2013-05-17 10:42:00,
2013-05-17 02:53:00,41.0,24.0,28.76,NE,56,0.0,0.0,51,0.00,,,0.00,,2013-05-17 10:53:00,
2013-05-17 03:02:00,40.0,23.0,28.75,NE,56,0.0,0.0,51,0.00,,,0.00,,2013-05-17 11:02:00,
2013-05-17 03:12:00,40.0,23.0,28.75,NE,56,0.0,0.0,51,0.00,,,0.00,,2013-05-17 11:12:00,
2013-05-17 03:22:00,40.0,24.0,28.75,NE,56,0.0,0.0,53,0.00,,,0.00,,2013-05-17 11:22:00,
2013-05-17 03:33:00,39.0,23.0,28.76,NE,56,0.0,0.0,53,0.00,,,0.00,,2013-05-17 11:33:00,
2013-05-17 03:42:00,39.0,23.0,28.76,NE,56,0.0,0.0,53,0.00,,,0.00,,2013-05-17 11:42:00,
2013-05-17 03:53:00,39.0,24.0,28.75,NE,56,0.0,0.0,54,0.00,,,0.00,,2013-05-17 11:53:00,
2013-05-17 04:02:00,38.0,23.0,28.75,NE,56,0.0,0.0,55,0.00,,,0.00,,2013-05-17 12:02:00,
2013-05-17 04:11:00,38.0,24.0,28.75,NE,56,0.0,0.0,56,0.00,,,0.00,,2013-05-17 12:11:00,
2013-05-17 04:23:00,38.0,24.0,28.75,NE,56,0.0,0.0,56,0.00,,,0.00,,2013-05-17 12:23:00,
2013-05-17 04:32:00,38.0,24.0,28.74,NE,56,0.0,0.0,56,0.00,,,0.00,,2013-05-17 12:32:00,
2013-05-17 04:42:00,38.0,24.0,28.74,NE,56,0.0,0.0,56,0.00,,,0.00,,2013-05-17 12:42:00,
2013-05-17 04:53:00,38.0,24.0,28.74,NE,56,0.0,0.0,57,0.00,,,0.00,,2013-05-17 12:53:00,
2013-05-17 05:03:00,38.0,24.0,28.74,NE,56,0.0,0.0,57,0.00,,,0.00,,2013-05-17 13:03:00,
2013-05-17 05:12:00,38.0,24.0,28.74,NE,56,0.0,0.0,57,0.00,,,0.00,,2013-05-17 13:12:00,
2013-05-17 05:23:00,37.0,24.0,28.75,NE,56,0.0,0.0,58,0.00,,,0.00,,2013-05-17 13:23:00,
2013-05-17 05:32:00,36.0,23.0,28.75,NE,56,0.0,0.0,60,0.00,,,0.00,,2013-05-17 13:32:00,
2013-05-17 05:42:00,36.0,23.0,28.75,NE,56,0.0,0.0,60,0.00,,,0.00,,2013-05-17 13:42:00,
2013-05-17 05:52:00,36.0,24.0,28.76,NE,56,0.0,0.0,61,0.00,,,0.00,,2013-05-17 13:52:00,
2013-05-17 06:01:00,36.0,24.0,28.76,NE,56,0.0,0.0,61,0.00,,,0.00,,2013-05-17 14:01:00,
2013-05-17 06:12:00,36.0,24.0,28.76,NE,56,0.0,0.0,61,0.00,,,0.00,,2013-05-17 14:12:00,
2013-05-17 06:22:00,36.0,24.0,28.76,ENE,61,0.0,0.0,62,0.00,,,0.00,,2013-05-17 14:22:00,
2013-05-17 06:33:00,36.0,25.0,28.77,SSW,193,0.0,0.0,63,0.00,,,0.00,,2013-05-17 14:33:00,
2013-05-17 06:42:00,36.0,25.0,28.77,SSW,193,0.0,0.0,63,0.00,,,0.00,,2013-05-17 14:42:00,
2013-05-17 06:53:00,36.0,25.0,28.77,SSW,193,0.0,0.0,64,0.00,,,0.00,,2013-05-17 14:53:00,
2013-05-17 07:03:00,36.0,26.0,28.77,SSW,193,0.0,0.0,66,0.00,,,0.00,,2013-05-17 15:03:00,
2013-05-17 07:13:00,36.0,26.0,28.77,SSW,193,0.0,0.0,66,0.00,,,0.00,,2013-05-17 15:13:00,
2013-05-17 07:25:00,35.0,25.0,28.77,SSW,193,0.0,0.0,66,0.00,,,0.00,,2013-05-17 15:25:00,
2013-05-17 07:37:00,35.0,26.0,28.77,SSW,193,0.0,0.0,68,0.00,,,0.00,,2013-05-17 15:37:00,
2013-05-17 07:47:00,35.0,26.0,28.77,SSW,193,0.0,0.0,68,0.00,,,0.00,,2013-05-17 15:47:00,
2013-05-17 07:56:00,35.0,26.0,28.78,SE,132,0.0,0.0,70,0.00,,,0.00,,2013-05-17 15:56:00,
2013-05-17 08:07:00,35.0,27.0,28.78,SSE,158,0.0,0.0,71,0.00,,,0.00,,2013-05-17 16:07:00,
2013-05-17 08:13:00,35.0,27.0,28.78,SSE,158,0.0,0.0,71,0.00,,,0.00,,2013-05-17 16:13:00,
2013-05-17 08:26:00,35.0,27.0,28.78,SE,145,0.0,0.0,72,0.00,,,0.00,,2013-05-17 16:26:00,
2013-05-17 08:37:00,35.0,27.0,28.78,West,265,0.0,0.0,73,0.00,,,0.00,,2013-05-17 16:37:00,
2013-05-17 08:49:00,35.0,27.0,28.78,West,265,0.0,0.0,73,0.00,,,0.00,,2013-05-17 16:49:00,
2013-05-17 08:56:00,36.0,28.0,28.78,SSW,192,0.0,0.0,73,0.00,,,0.00,,2013-05-17 16:56:00,
2013-05-17 09:07:00,36.0,28.0,28.79,SSE,165,0.0,0.0,73,0.00,,,0.00,,2013-05-17 17:07:00,
2013-05-17 09:18:00,36.0,28.0,28.79,SSE,165,0.0,0.0,73,0.00,,,0.00,,2013-05-17 17:18:00,
2013-05-17 09:29:00,36.0,28.0,28.79,South,189,0.0,0.0,72,0.00,,,0.00,,2013-05-17 17:29:00,
2013-05-17 09:40:00,37.0,-99.9,28.79,SSE,157,0.0,0.0,71,0.00,,,0.00,,2013-05-17 17:40:00,
2013-05-17 09:48:00,37.0,28.0,28.79,SSE,157,0.0,0.0,71,0.00,,,0.00,,2013-05-17 17:48:00,
2013-05-17 10:00:00,37.0,28.0,28.80,ESE,120,0.0,0.0,71,0.00,,,0.00,,2013-05-17 18:00:00,
2013-05-17 10:08:00,37.0,28.0,28.79,South,186,0.0,0.0,71,0.00,,,0.00,,2013-05-17 18:08:00,
2013-05-17 10:20:00,37.0,28.0,28.79,South,186,0.0,0.0,71,0.00,,,0.00,,2013-05-17 18:20:00,
2013-05-17 10:30:00,37.0,28.0,28.80,SSE,151,0.0,0.0,71,0.00,,,0.00,,2013-05-17 18:30:00,
2013-05-17 10:40:00,37.0,28.0,28.80,SSE,148,0.0,0.0,71,0.00,,,0.00,,2013-05-17 18:40:00,
2013-05-17 10:50:00,-999.0,-99.9,28.80,SSE,148,0.0,0.0,71,0.00,,,0.00,,2013-05-17 18:50:00,
2013-05-17 11:00:00,38.0,29.0,28.80,SSE,164,0.0,0.0,71,0.00,,,0.00,,2013-05-17 19:00:00,
2013-05-17 11:10:00,38.0,29.0,28.80,SSE,156,0.0,0.0,71,0.00,,,0.00,,2013-05-17 19:10:00,
2013-05-17 11:20:00,37.0,29.0,28.81,SSE,150,0.0,0.0,73,0.00,,,0.00,,2013-05-17 19:20:00,
2013-05-17 11:30:00,37.0,29.0,28.81,SSE,150,0.0,0.0,73,0.00,,,0.00,,2013-05-17 19:30:00,
2013-05-17 11:40:00,37.0,30.0,28.82,SSW,200,0.0,0.0,75,0.00,,,0.00,,2013-05-17 19:40:00,
2013-05-17 11:50:00,37.0,30.0,28.82,SSW,200,0.0,0.0,75,0.00,,,0.00,,2013-05-17 19:50:00,
2013-05-17 12:00:00,36.0,-99.9,28.82,SSW,205,0.0,0.0,76,0.00,,,0.00,,2013-05-17 20:00:00,
2013-05-17 12:09:00,36.0,30.0,28.82,SSW,194,0.0,0.0,78,0.00,,,0.00,,2013-05-17 20:09:00,
2013-05-17 12:20:00,36.0,30.0,28.82,SSW,194,0.0,0.0,78,0.00,,,0.00,,2013-05-17 20:20:00,
2013-05-17 12:30:00,35.0,29.0,28.82,SSW,201,0.0,1.0,80,0.00,,,0.00,,2013-05-17 20:30:00,
2013-05-17 12:40:00,35.0,30.0,28.82,South,172,0.0,1.0,81,0.00,,,0.00,,2013-05-17 20:40:00,
2013-05-17 12:49:00,35.0,30.0,28.82,South,172,0.0,1.0,81,0.00,,,0.00,,2013-05-17 20:49:00,
2013-05-17 12:58:00,34.0,29.0,28.83,SSE,162,0.0,1.0,82,0.00,,,0.00,,2013-05-17 20:58:00,
2013-05-17 13:07:00,34.0,29.0,28.83,South,177,0.0,1.0,83,0.00,,,0.00,,2013-05-17 21:07:00,
2013-05-17 13:16:00,34.0,29.0,28.83,South,177,0.0,1.0,83,0.00,,,0.00,,2013-05-17 21:16:00,
2013-05-17 13:25:00,34.0,30.0,28.84,WSW,237,0.0,1.0,84,0.00,,,0.00,,2013-05-17 21:25:00,
2013-05-17 13:39:00,34.0,30.0,28.84,South,185,0.0,1.0,85,0.00,,,0.00,,2013-05-17 21:39:00,
2013-05-17 13:49:00,34.0,30.0,28.84,South,189,0.0,1.0,85,0.00,,,0.00,,2013-05-17 21:49:00,
2013-05-17 13:57:00,34.0,30.0,28.84,South,189,0.0,1.0,85,0.00,,,0.00,,2013-05-17 21:57:00,
2013-05-17 14:06:00,34.0,30.0,28.84,South,186,0.0,1.0,85,0.00,,,0.00,,2013-05-17 22:06:00,
2013-05-17 14:16:00,34.0,30.0,28.84,South,186,0.0,1.0,85,0.00,,,0.00,,2013-05-17 22:16:00,
2013-05-17 14:28:00,34.0,30.0,28.85,SSE,162,0.0,1.0,84,0.00,,,0.00,,2013-05-17 22:28:00,
2013-05-17 14:37:00,34.0,30.0,28.85,SSE,167,0.0,1.0,84,0.00,,,0.00,,2013-05-17 22:37:00,
2013-05-17 14:47:00,34.0,30.0,28.85,SSE,167,0.0,1.0,84,0.00,,,0.00,,2013-05-17 22:47:00,
2013-05-17 14:55:00,34.0,29.0,28.86,SSW,202,0.0,1.0,83,0.00,,,0.00,,2013-05-17 22:55:00,
2013-05-17 15:04:00,34.0,29.0,28.87,South,177,0.0,1.0,82,0.00,,,0.00,,2013-05-17 23:04:00,
2013-05-17 15:12:00,34.0,29.0,28.87,South,177,0.0,1.0,82,0.00,,,0.00,,2013-05-17 23:12:00,
2013-05-17 15:23:00,34.0,29.0,28.87,South,177,0.0,1.0,82,0.00,,,0.00,,2013-05-17 23:23:00,
2013-05-17 15:37:00,34.0,29.0,28.87,South,177,0.0,1.0,82,0.00,,,0.00,,2013-05-17 23:37:00,
2013-05-17 15:47:00,34.0,29.0,28.87,South,177,0.0,1.0,82,0.00,,,0.00,,2013-05-17 23:47:00,
2013-05-17 16:02:00,34.0,28.0,28.88,West,269,0.0,2.0,80,0.00,,,0.00,,2013-05-18 00:02:00,
2013-05-17 16:14:00,34.0,28.0,28.88,West,269,0.0,2.0,80,0.00,,,0.00,,2013-05-18 00:14:00,
2013-05-17 16:21:00,34.0,28.0,28.88,West,269,0.0,2.0,80,0.00,,,0.00,,2013-05-18 00:21:00,
2013-05-17 16:33:00,34.0,28.0,28.89,SW,220,0.0,2.0,80,0.00,,,0.00,,2013-05-18 00:33:00,
2013-05-17 16:44:00,34.0,28.0,28.89,SW,220,0.0,2.0,80,0.00,,,0.00,,2013-05-18 00:44:00,
2013-05-17 16:54:00,34.0,28.0,28.90,WSW,250,0.0,2.0,80,0.00,,,0.00,,2013-05-18 00:54:00,
2013-05-17 17:02:00,33.0,27.0,28.90,WNW,282,0.0,2.0,79,0.00,,,0.00,,2013-05-18 01:02:00,
2013-05-17 17:13:00,33.0,27.0,28.90,WNW,282,0.0,2.0,79,0.00,,,0.00,,2013-05-18 01:13:00,
2013-05-17 17:23:00,33.0,27.0,28.90,WNW,288,0.0,2.0,79,0.00,,,0.00,,2013-05-18 01:23:00,
2013-05-17 17:31:00,33.0,27.0,28.90,WSW,245,0.0,2.0,78,0.00,,,0.00,,2013-05-18 01:31:00,
2013-05-17 17:42:00,33.0,27.0,28.90,WSW,245,0.0,2.0,78,0.00,,,0.00,,2013-05-18 01:42:00,
2013-05-17 17:52:00,33.0,27.0,28.90,WSW,245,0.0,2.0,78,0.00,,,0.00,,2013-05-18 01:52:00,
2013-05-17 18:02:00,34.0,27.0,28.90,WSW,252,0.0,2.0,76,0.00,,,0.00,,2013-05-18 02:02:00,
2013-05-17 18:11:00,34.0,27.0,28.90,WSW,252,0.0,2.0,76,0.00,,,0.00,,2013-05-18 02:11:00,
2013-05-17 18:22:00,34.0,27.0,28.91,WSW,253,0.0,2.0,75,0.00,,,0.00,,2013-05-18 02:22:00,
2013-05-17 18:31:00,34.0,27.0,28.91,West,268,0.0,2.0,74,0.00,,,0.00,,2013-05-18 02:31:00,
2013-05-17 18:42:00,34.0,27.0,28.91,West,268,0.0,2.0,74,0.00,,,0.00,,2013-05-18 02:42:00,
2013-05-17 18:53:00,33.0,26.0,28.91,SSW,213,0.0,2.0,74,0.00,,,0.00,,2013-05-18 02:53:00,
2013-05-17 19:02:00,33.0,26.0,28.92,WSW,244,0.0,3.0,74,0.00,,,0.00,,2013-05-18 03:02:00,
2013-05-17 19:11:00,33.0,26.0,28.92,WSW,244,0.0,3.0,74,0.00,,,0.00,,2013-05-18 03:11:00,
2013-05-17 19:22:00,33.0,26.0,28.92,WSW,237,0.0,3.0,75,0.00,,,0.00,,2013-05-18 03:22:00,
2013-05-17 19:32:00,33.0,26.0,28.93,WSW,245,0.0,3.0,75,0.00,,,0.00,,2013-05-18 03:32:00,
2013-05-17 19:43:00,33.0,26.0,28.93,WSW,245,0.0,3.0,75,0.00,,,0.00,,2013-05-18 03:43:00,
2013-05-17 19:53:00,32.0,25.0,28.93,WNW,287,0.0,3.0,75,0.00,,,0.00,,2013-05-18 03:53:00,
2013-05-17 20:02:00,32.0,25.0,28.94,SSW,201,0.0,3.0,75,0.00,,,0.00,,2013-05-18 04:02:00,
2013-05-17 20:12:00,32.0,25.0,28.94,SSW,201,0.0,3.0,75,0.00,,,0.00,,2013-05-18 04:12:00,
2013-05-17 20:22:00,32.0,25.0,28.94,SW,230,0.0,3.0,76,0.00,,,0.00,,2013-05-18 04:22:00,
2013-05-17 20:32:00,31.0,25.0,28.94,SW,219,0.0,3.0,77,0.00,,,0.00,,2013-05-18 04:32:00,
2013-05-17 20:42:00,31.0,25.0,28.94,SW,219,0.0,3.0,77,0.00,,,0.00,,2013-05-18 04:42:00,
2013-05-17 20:52:00,31.0,25.0,28.95,SSW,201,0.0,3.0,79,0.00,,,0.00,,2013-05-18 04:52:00,
2013-05-17 21:01:00,31.0,26.0,28.95,SW,228,0.0,3.0,81,0.00,,,0.00,,2013-05-18 05:01:00,
2013-05-17 21:12:00,31.0,26.0,28.95,SW,228,0.0,3.0,81,0.00,,,0.00,,2013-05-18 05:12:00,
2013-05-17 21:21:00,30.0,25.0,28.96,SSW,205,0.0,3.0,82,0.00,,,0.00,,2013-05-18 05:21:00,
2013-05-17 21:31:00,30.0,25.0,28.96,SSW,205,0.0,3.0,82,0.00,,,0.00,,2013-05-18 05:31:00,
2013-05-17 21:41:00,30.0,25.0,28.96,SSW,205,0.0,3.0,82,0.00,,,0.00,,2013-05-18 05:41:00,
2013-05-17 21:52:00,30.0,25.0,28.96,SSW,205,0.0,3.0,82,0.00,,,0.00,,2013-05-18 05:52:00,
2013-05-17 22:01:00,29.0,24.0,28.97,WSW,242,0.0,3.0,81,0.00,,,0.00,,2013-05-18 06:01:00,
2013-05-17 22:11:00,29.0,24.0,28.97,SW,230,0.0,3.0,81,0.00,,,0.00,,2013-05-18 06:11:00,
2013-05-17 22:22:00,29.0,24.0,28.97,SW,230,0.0,3.0,81,0.00,,,0.00,,2013-05-18 06:22:00,
2013-05-17 22:31:00,29.0,24.0,28.97,SW,230,0.0,3.0,81,0.00,,,0.00,,2013-05-18 06:31:00,
2013-05-17 22:41:00,29.0,24.0,28.97,SW,230,0.0,3.0,81,0.00,,,0.00,,2013-05-18 06:41:00,
2013-05-17 22:52:00,28.0,23.0,28.98,SW,231,0.0,3.0,80,0.00,,,0.00,,2013-05-18 06:52:00,
2013-05-17 23:01:00,28.0,23.0,28.99,SSW,210,0.0,3.0,80,0.00,,,0.00,,2013-05-18 07:01:00,
2013-05-17 23:11:00,27.0,22.0,28.99,WSW,241,0.0,3.0,80,0.00,,,0.00,,2013-05-18 07:11:00,
2013-05-17 23:21:00,27.0,22.0,28.99,WSW,241,0.0,3.0,80,0.00,,,0.00,,2013-05-18 07:21:00,
2013-05-17 23:31:00,27.0,22.0,29.00,SSW,210,0.0,3.0,80,0.00,,,0.00,,2013-05-18 07:31:00,
2013-05-17 23:42:00,27.0,22.0,29.00,SSE,160,0.0,3.0,80,0.00,,,0.00,,2013-05-18 07:42:00,
2013-05-17 23:52:00,27.0,22.0,29.00,SSE,160,0.0,3.0,80,0.00,,,0.00,,2013-05-18 07:52:00,